COSMOS 2491 DEB, 44996

Orbit data source: Space-Track

COSMOS 2491 DEB, 44996 is space debris in LEO originally from a launch on Wed, 25 Dec 2013 UTC launched from the Plesetsk Missile And Space Complex (PKMTR). Debris objects in space refer to the collection of defunct objects orbiting the Earth. Examples of debris include non-operational satellites, rocket bodies, and fragments generated from explosions, collisions, or faulty payload assembly.

Loading next visibility...
Identifier
44996, 2013-076R
Orbit
LEO
Country
Flag of CISCIS
Related business
Manufacturer
TsNIIKhM
Mission
Spacecraft
Bus & Motor
Unknown
Mass
Unknown
Launch date (UTC)
2013-12-25 (13 years ago)
Launch vehicle
Unknown
Launch site
Plesetsk Missile And Space Complex (PKMTR)
Object type
Payload
Rocket body
Debris
Shape & HBR
Unknown shape, 0.1 m
Radar Cross Section
Small (<0.1 m²)

Expand to show TLE details & history
Last TLE update: 1 month ago

TLE from 1 month ago
0 COSMOS 2491 DEB
1 44996U 13076R   26222.04324040  .00000106  00000-0  68900-3 0  9993
2 44996  82.4831 135.0940 0016640 338.9114  21.1278 12.43363298299055
Epoch: 2026-08-10T01:02Z
TLE epoch observation values (Epoch: 2026-08-10T01:02:15.970Z)
Latitude
-0.00003°
Longitude
160.99591°
Altitude
1,482.862 km
Speed
7.128 km/s
True Right ascension
09h 00m 22s
True Declination
0° 00' 00"
Sunlit
Object was in daylight at epoch
Visualization orbit readout
Latitude
Unknown
Longitude
Unknown
Altitude
Unknown
Speed
Unknown
Apparent Right ascension
Unknown
Apparent Declination
Unknown
Sunlit
N/A
Visualization observer readout
Local Sidereal Time
04:10:11
Azimuth
Unknown
Elevation
Unknown
Doppler factor
Unknown
Orbital elements
Apogee altitude
1,502.821 km
Perigee altitude
1,476.637 km
Semi-major axis
7,867.866 km
Eccentricity
0.00166
Inclination
82.4831°
RAAN
135.094°
Arg. of periapsis
338.9114°
True anomaly
21.19666°
Mean anomaly
21.1278°
Eccentric anomaly
21.16222°
Mean motion
3.10998 °/min
Orbital period
115.76 mins
BSTAR
0.000689
Loading maneuver chart data...
Computing Atmospheric mass density...
Loading historical data...
Loading historical data...
Loading historical data...
Loading historical data...
Loading historical data...
Loading historical data...
Loading historical data...

Documentation

Showing up to 5 results
|